EN

Hourly Weather Lagiewniki

Today, 30 July, Friday

Time Temperature Precipitation Wind Pressure Humidity
00:00 +19°C° 0 mm 2 mps 751 mmHg 68%
01:00 +19°C° 0 mm 2 mps 751 mmHg 68%
02:00 +18°C° 0 mm 2 mps 751 mmHg 68%
03:00 +18°C° 0 mm 2 mps 751 mmHg 68%
04:00 +18°C° 0 mm 2 mps 751 mmHg 68%
05:00 +19°C° 0 mm 2 mps 751 mmHg 66%
06:00 +20°C° 0 mm 3 mps 751 mmHg 63%
07:00 +20°C° 0 mm 3 mps 751 mmHg 60%
08:00 +22°C° 0 mm 4 mps 751 mmHg 54%
09:00 +23°C° 0 mm 5 mps 751 mmHg 49%
10:00 +24°C° 0 mm 6 mps 751 mmHg 43%
11:00 +26°C° 0 mm 6 mps 751 mmHg 42%
12:00 +26°C° 0 mm 6 mps 750 mmHg 40%
13:00 +27°C° 0 mm 6 mps 750 mmHg 39%
14:00 +27°C° 0 mm 6 mps 750 mmHg 41%
15:00 +27°C° 0 mm 5 mps 749 mmHg 43%
16:00 +27°C° 0 mm 4 mps 749 mmHg 45%
17:00 +26°C° 0 mm 4 mps 749 mmHg 48%
18:00 +25°C° 0 mm 4 mps 749 mmHg 52%
19:00 +24°C° 0 mm 3 mps 749 mmHg 56%
20:00 +22°C° 0 mm 3 mps 749 mmHg 58%
21:00 +20°C° 0 mm 3 mps 749 mmHg 59%
22:00 +19°C° 0 mm 2 mps 749 mmHg 61%
23:00 +19°C° 0 mm 2 mps 749 mmHg 62%

Tomorrow, 31 July, Saturday

Time Temperature Precipitation Wind Pressure Humidity
00:00 +19°C° 0 mm 1 mps 749 mmHg 63%
01:00 +19°C° 0 mm 1 mps 749 mmHg 64%
02:00 +18°C° 0 mm 1 mps 749 mmHg 65%
03:00 +18°C° 0 mm 1 mps 749 mmHg 65%
04:00 +17°C° 0 mm 2 mps 749 mmHg 66%
05:00 +19°C° 0 mm 2 mps 749 mmHg 63%
06:00 +20°C° 0 mm 2 mps 749 mmHg 61%
07:00 +22°C° 0 mm 3 mps 749 mmHg 58%
08:00 +25°C° 0 mm 3 mps 749 mmHg 55%
09:00 +26°C° 0 mm 4 mps 748 mmHg 51%
10:00 +28°C° 0 mm 4 mps 748 mmHg 47%
11:00 +28°C° 0 mm 4 mps 748 mmHg 48%
12:00 +28°C° 0 mm 4 mps 748 mmHg 50%
13:00 +28°C° 0 mm 4 mps 748 mmHg 52%
14:00 +28°C° 0 mm 5 mps 748 mmHg 49%
15:00 +27°C° 0 mm 5 mps 748 mmHg 46%
16:00 +27°C° 0 mm 5 mps 748 mmHg 44%
17:00 +26°C° 0 mm 5 mps 748 mmHg 46%
18:00 +25°C° 0 mm 4 mps 748 mmHg 49%
19:00 +23°C° 0 mm 4 mps 748 mmHg 51%
20:00 +21°C° 0 mm 4 mps 748 mmHg 53%
21:00 +20°C° 0 mm 3 mps 748 mmHg 55%
22:00 +19°C° 0 mm 3 mps 749 mmHg 57%
23:00 +18°C° 0 mm 3 mps 749 mmHg 59%

Day after tomorrow, 1 August, Sunday

Time Temperature Precipitation Wind Pressure Humidity
00:00 +17°C° 0 mm 3 mps 749 mmHg 61%
01:00 +17°C° 0 mm 3 mps 749 mmHg 64%
02:00 +16°C° 0 mm 3 mps 749 mmHg 67%
03:00 +16°C° 0 mm 3 mps 750 mmHg 70%
04:00 +14°C° 0 mm 3 mps 750 mmHg 72%
05:00 +17°C° 0 mm 3 mps 750 mmHg 70%
06:00 +18°C° 0 mm 3 mps 750 mmHg 67%
07:00 +19°C° 0 mm 3 mps 750 mmHg 64%
08:00 +20°C° 0 mm 3 mps 750 mmHg 61%
09:00 +21°C° 0 mm 3 mps 750 mmHg 59%
10:00 +22°C° 0 mm 3 mps 750 mmHg 57%
11:00 +20°C° 0.5 mm 3 mps 750 mmHg 65%
12:00 +19°C° 0.5 mm 3 mps 750 mmHg 74%
13:00 +18°C° 0.5 mm 4 mps 751 mmHg 83%
14:00 +18°C° 0.7 mm 3 mps 750 mmHg 81%
15:00 +18°C° 0.7 mm 3 mps 750 mmHg 78%
16:00 +18°C° 0.7 mm 2 mps 750 mmHg 76%
17:00 +18°C° 0 mm 2 mps 750 mmHg 77%
18:00 +18°C° 0 mm 2 mps 750 mmHg 78%
19:00 +18°C° 0 mm 2 mps 750 mmHg 79%
20:00 +17°C° 0 mm 2 mps 750 mmHg 82%
21:00 +16°C° 0 mm 2 mps 750 mmHg 85%
22:00 +16°C° 0 mm 3 mps 750 mmHg 89%
23:00 +16°C° 0 mm 3 mps 750 mmHg 90%

2 August, Monday

Time Temperature Precipitation Wind Pressure Humidity
00:00 +15°C° 0 mm 2 mps 750 mmHg 91%
01:00 +15°C° 0 mm 2 mps 749 mmHg 92%
02:00 +15°C° 0 mm 2 mps 749 mmHg 91%
03:00 +15°C° 0 mm 2 mps 749 mmHg 90%
04:00 +15°C° 0 mm 2 mps 749 mmHg 89%
05:00 +16°C° 0 mm 3 mps 749 mmHg 84%
06:00 +17°C° 0 mm 3 mps 749 mmHg 78%
07:00 +18°C° 0 mm 4 mps 749 mmHg 73%
08:00 +20°C° 0 mm 4 mps 750 mmHg 67%
09:00 +21°C° 0 mm 5 mps 750 mmHg 61%
10:00 +22°C° 0 mm 5 mps 750 mmHg 55%
11:00 +23°C° 0.2 mm 5 mps 750 mmHg 54%
12:00 +23°C° 0.2 mm 5 mps 750 mmHg 52%
13:00 +24°C° 0.2 mm 6 mps 750 mmHg 51%
14:00 +23°C° 0.3 mm 5 mps 750 mmHg 54%
15:00 +23°C° 0.3 mm 5 mps 751 mmHg 57%
16:00 +22°C° 0.3 mm 5 mps 751 mmHg 60%
17:00 +21°C° 0.1 mm 4 mps 751 mmHg 58%
18:00 +21°C° 0.1 mm 4 mps 751 mmHg 57%
19:00 +20°C° 0.1 mm 3 mps 751 mmHg 56%
20:00 +19°C° 0 mm 3 mps 752 mmHg 57%
21:00 +18°C° 0 mm 3 mps 752 mmHg 58%
22:00 +18°C° 0 mm 3 mps 753 mmHg 58%
23:00 +17°C° 0 mm 3 mps 753 mmHg 61%

3 August, Tuesday

Time Temperature Precipitation Wind Pressure Humidity
00:00 +16°C° 0 mm 3 mps 753 mmHg 63%
01:00 +16°C° 0 mm 3 mps 753 mmHg 66%
02:00 +16°C° 0 mm 3 mps 754 mmHg 65%
03:00 +16°C° 0 mm 3 mps 754 mmHg 65%
04:00 +16°C° 0 mm 3 mps 754 mmHg 64%
05:00 +17°C° 0 mm 3 mps 754 mmHg 64%
06:00 +18°C° 0 mm 4 mps 754 mmHg 63%
07:00 +18°C° 0 mm 4 mps 755 mmHg 62%
08:00 +19°C° 0 mm 4 mps 755 mmHg 57%
09:00 +21°C° 0 mm 4 mps 755 mmHg 52%
10:00 +22°C° 0 mm 5 mps 755 mmHg 47%
11:00 +22°C° 0 mm 4 mps 755 mmHg 44%
12:00 +23°C° 0 mm 4 mps 755 mmHg 41%
13:00 +25°C° 0 mm 4 mps 755 mmHg 39%
14:00 +25°C° 0 mm 4 mps 755 mmHg 40%
15:00 +25°C° 0 mm 4 mps 754 mmHg 41%
16:00 +25°C° 0 mm 3 mps 754 mmHg 42%
17:00 +24°C° 0 mm 2 mps 754 mmHg 46%
18:00 +23°C° 0 mm 2 mps 754 mmHg 50%
19:00 +22°C° 0 mm 1 mps 754 mmHg 54%
20:00 +21°C° 0 mm 1 mps 754 mmHg 54%
21:00 +21°C° 0 mm 1 mps 754 mmHg 55%
22:00 +20°C° 0 mm 1 mps 754 mmHg 55%
23:00 +20°C° 0.1 mm 1 mps 754 mmHg 59%

4 August, Wednesday

Time Temperature Precipitation Wind Pressure Humidity
00:00 +19°C° 0.1 mm 1 mps 754 mmHg 62%
01:00 +19°C° 0.1 mm 1 mps 754 mmHg 66%
02:00 +18°C° 0.1 mm 1 mps 754 mmHg 70%
03:00 +17°C° 0.1 mm 2 mps 754 mmHg 74%
04:00 +16°C° 0.1 mm 2 mps 754 mmHg 77%
05:00 +16°C° 0.3 mm 2 mps 754 mmHg 81%
06:00 +16°C° 0.3 mm 2 mps 754 mmHg 84%
07:00 +16°C° 0.3 mm 2 mps 755 mmHg 87%
08:00 +16°C° 0.2 mm 2 mps 755 mmHg 86%
09:00 +17°C° 0.2 mm 2 mps 755 mmHg 84%
10:00 +17°C° 0.2 mm 2 mps 755 mmHg 83%
11:00 +18°C° 0.3 mm 2 mps 755 mmHg 81%
12:00 +18°C° 0.3 mm 2 mps 755 mmHg 80%
13:00 +19°C° 0.3 mm 2 mps 754 mmHg 78%
14:00 +19°C° 0.1 mm 2 mps 754 mmHg 74%
15:00 +21°C° 0.1 mm 1 mps 754 mmHg 71%
16:00 +22°C° 0.1 mm 1 mps 754 mmHg 67%
17:00 +21°C° 0.3 mm 1 mps 754 mmHg 72%
18:00 +20°C° 0.3 mm 1 mps 754 mmHg 77%
19:00 +19°C° 0.3 mm 1 mps 754 mmHg 81%
20:00 +18°C° 0 mm 1 mps 754 mmHg 84%
21:00 +18°C° 0 mm 1 mps 754 mmHg 87%
22:00 +16°C° 0 mm 1 mps 754 mmHg 90%
23:00 +15°C° 0 mm 1 mps 754 mmHg 91%
Show more